Location: B?dargowo
(53.3916°N, 14.4413°E)
Time: 09:51:11
(UTC+00:00)

Cosmos 2263 Rocket - Pass Details

Date: 05 February 2023
Orbit: 825 x 847 km, 71.0° (Epoch: 19 March)

Event Time Altitude Azimuth Distance (km) Brightness Sun altitude
Rises 16:35:58 0° 323° (NW) 3,376 5.6 -6.8°
Reaches altitude 10° 16:38:41 10° 312° (NW) 2,437 5.0 -7.2°
Maximum altitude 16:43:24 29° 255° (WSW) 1,476 4.5 -7.9°
Drops below altitude 10° 16:48:06 10° 196° (SSW) 2,423 5.0 -8.6°
Sets 16:50:47 0° 186° (S) 3,353 5.6 -9.0°
